When you browse on this site, cookies collect data to enhance your experience and personalize the content and advertising you see.
Visit our Privacy Policy to learn more. By continuing to use the site, you agree to this use of cookies and data.
  • In Portugal
  • List of Countries
  • For 7 days
  • Water Temperature
  • Weather Map
  • Weather Widgets
  • user-avatar
    Login

    Hourly Weather Shishkeevo

    Today, 25 August, Sunday

    Time Temperature Precipitation Wind Pressure Humidity
    00:00 +15°C° 0 mm 2 mps 746 mmHg 70%
    01:00 +13°C° 0 mm 3 mps 746 mmHg 73%
    02:00 +13°C° 0 mm 3 mps 746 mmHg 76%
    03:00 +13°C° 0 mm 3 mps 746 mmHg 79%
    04:00 +13°C° 0 mm 3 mps 746 mmHg 82%
    05:00 +13°C° 0 mm 3 mps 746 mmHg 85%
    06:00 +13°C° 0 mm 3 mps 746 mmHg 88%
    07:00 +14°C° 0 mm 4 mps 746 mmHg 83%
    08:00 +17°C° 0 mm 4 mps 746 mmHg 79%
    09:00 +18°C° 0 mm 4 mps 746 mmHg 75%
    10:00 +19°C° 0 mm 5 mps 746 mmHg 69%
    11:00 +20°C° 0 mm 5 mps 746 mmHg 64%
    12:00 +20°C° 0 mm 6 mps 746 mmHg 58%
    13:00 +20°C° 0 mm 6 mps 747 mmHg 61%
    14:00 +19°C° 0 mm 6 mps 747 mmHg 63%
    15:00 +18°C° 0 mm 7 mps 747 mmHg 65%
    16:00 +17°C° 0 mm 6 mps 747 mmHg 69%
    17:00 +16°C° 0 mm 5 mps 747 mmHg 72%
    18:00 +16°C° 0 mm 3 mps 748 mmHg 75%
    19:00 +14°C° 0 mm 3 mps 748 mmHg 79%
    20:00 +13°C° 0 mm 3 mps 749 mmHg 84%
    21:00 +12°C° 0 mm 3 mps 749 mmHg 88%
    22:00 +12°C° 0 mm 3 mps 749 mmHg 90%
    23:00 +11°C° 0 mm 3 mps 749 mmHg 91%

    Tomorrow, 26 August, Monday

    Time Temperature Precipitation Wind Pressure Humidity
    00:00 +11°C° 0 mm 3 mps 750 mmHg 93%
    01:00 +10°C° 0 mm 2 mps 750 mmHg 93%
    02:00 +10°C° 0 mm 2 mps 750 mmHg 94%
    03:00 +9°C° 0 mm 2 mps 751 mmHg 95%
    04:00 +9°C° 0 mm 2 mps 751 mmHg 95%
    05:00 +9°C° 0 mm 2 mps 751 mmHg 95%
    06:00 +9°C° 0 mm 2 mps 751 mmHg 95%
    07:00 +12°C° 0 mm 2 mps 751 mmHg 88%
    08:00 +13°C° 0 mm 2 mps 751 mmHg 80%
    09:00 +15°C° 0 mm 2 mps 752 mmHg 73%
    10:00 +16°C° 0 mm 2 mps 751 mmHg 68%
    11:00 +17°C° 0 mm 2 mps 751 mmHg 63%
    12:00 +18°C° 0 mm 2 mps 751 mmHg 58%
    13:00 +19°C° 0 mm 2 mps 751 mmHg 57%
    14:00 +19°C° 0 mm 2 mps 751 mmHg 55%
    15:00 +20°C° 0 mm 3 mps 750 mmHg 54%
    16:00 +19°C° 0 mm 2 mps 750 mmHg 59%
    17:00 +18°C° 0 mm 2 mps 750 mmHg 64%
    18:00 +18°C° 0 mm 2 mps 749 mmHg 69%
    19:00 +16°C° 0 mm 2 mps 749 mmHg 72%
    20:00 +15°C° 0 mm 2 mps 749 mmHg 76%
    21:00 +14°C° 0 mm 2 mps 749 mmHg 79%
    22:00 +14°C° 0 mm 2 mps 748 mmHg 80%
    23:00 +12°C° 0 mm 3 mps 748 mmHg 81%

    Day after tomorrow, 27 August, Tuesday

    Time Temperature Precipitation Wind Pressure Humidity
    00:00 +12°C° 0 mm 3 mps 747 mmHg 82%
    01:00 +12°C° 0 mm 3 mps 747 mmHg 82%
    02:00 +12°C° 0 mm 3 mps 747 mmHg 82%
    03:00 +12°C° 0 mm 4 mps 746 mmHg 82%
    04:00 +12°C° 0 mm 4 mps 746 mmHg 80%
    05:00 +12°C° 0 mm 5 mps 745 mmHg 78%
    06:00 +13°C° 0 mm 5 mps 744 mmHg 77%
    07:00 +14°C° 0 mm 5 mps 744 mmHg 75%
    08:00 +15°C° 0 mm 6 mps 743 mmHg 74%
    09:00 +16°C° 0 mm 6 mps 743 mmHg 72%
    10:00 +16°C° 0.2 mm 6 mps 742 mmHg 73%
    11:00 +17°C° 0.2 mm 6 mps 742 mmHg 73%
    12:00 +19°C° 0.2 mm 6 mps 741 mmHg 74%
    13:00 +19°C° 0.8 mm 6 mps 741 mmHg 74%
    14:00 +19°C° 0.8 mm 6 mps 740 mmHg 74%
    15:00 +20°C° 0.8 mm 7 mps 740 mmHg 74%
    16:00 +19°C° 1.6 mm 6 mps 739 mmHg 77%
    17:00 +17°C° 1.6 mm 5 mps 739 mmHg 81%
    18:00 +16°C° 1.6 mm 5 mps 738 mmHg 84%
    19:00 +15°C° 0.4 mm 5 mps 738 mmHg 86%
    20:00 +13°C° 0.4 mm 4 mps 738 mmHg 89%
    21:00 +12°C° 0.4 mm 4 mps 739 mmHg 91%
    22:00 +12°C° 0 mm 5 mps 739 mmHg 91%
    23:00 +10°C° 0 mm 5 mps 739 mmHg 91%

    28 August, Wednesday

    Time Temperature Precipitation Wind Pressure Humidity
    00:00 +9°C° 0 mm 6 mps 739 mmHg 91%
    01:00 +8°C° 0 mm 6 mps 739 mmHg 89%
    02:00 +7°C° 0 mm 6 mps 739 mmHg 88%
    03:00 +5°C° 0 mm 6 mps 739 mmHg 87%
    04:00 +5°C° 0 mm 6 mps 740 mmHg 84%
    05:00 +5°C° 0 mm 6 mps 740 mmHg 82%
    06:00 +4°C° 0 mm 7 mps 740 mmHg 79%
    07:00 +5°C° 0.1 mm 7 mps 741 mmHg 78%
    08:00 +5°C° 0.1 mm 7 mps 741 mmHg 77%
    09:00 +5°C° 0.1 mm 8 mps 741 mmHg 76%
    10:00 +6°C° 0 mm 8 mps 741 mmHg 75%
    11:00 +6°C° 0 mm 8 mps 741 mmHg 73%
    12:00 +6°C° 0 mm 7 mps 742 mmHg 72%
    13:00 +6°C° 0 mm 7 mps 742 mmHg 72%
    14:00 +6°C° 0 mm 7 mps 742 mmHg 72%
    15:00 +6°C° 0 mm 7 mps 743 mmHg 73%
    16:00 +6°C° 0 mm 7 mps 743 mmHg 74%
    17:00 +6°C° 0 mm 7 mps 743 mmHg 75%
    18:00 +7°C° 0 mm 6 mps 743 mmHg 76%
    19:00 +7°C° 0 mm 6 mps 743 mmHg 75%
    20:00 +7°C° 0 mm 6 mps 743 mmHg 74%
    21:00 +7°C° 0 mm 6 mps 743 mmHg 73%
    22:00 +5°C° 0 mm 6 mps 743 mmHg 75%
    23:00 +5°C° 0 mm 6 mps 743 mmHg 78%

    29 August, Thursday

    Time Temperature Precipitation Wind Pressure Humidity
    00:00 +6°C° 0 mm 5 mps 743 mmHg 80%
    01:00 +4°C° 0 mm 6 mps 743 mmHg 80%
    02:00 +4°C° 0 mm 6 mps 743 mmHg 81%
    03:00 +3°C° 0 mm 6 mps 743 mmHg 81%
    04:00 +3°C° 0 mm 6 mps 743 mmHg 81%
    05:00 +3°C° 0 mm 7 mps 743 mmHg 81%
    06:00 +3°C° 0 mm 7 mps 744 mmHg 81%
    07:00 +4°C° 0 mm 7 mps 744 mmHg 78%
    08:00 +5°C° 0 mm 8 mps 744 mmHg 75%
    09:00 +6°C° 0 mm 8 mps 744 mmHg 72%
    10:00 +7°C° 0 mm 8 mps 744 mmHg 71%
    11:00 +7°C° 0 mm 8 mps 744 mmHg 70%
    12:00 +9°C° 0 mm 7 mps 745 mmHg 68%
    13:00 +9°C° 0 mm 7 mps 745 mmHg 69%
    14:00 +9°C° 0 mm 7 mps 745 mmHg 70%
    15:00 +9°C° 0 mm 6 mps 745 mmHg 71%
    16:00 +8°C° 0 mm 6 mps 745 mmHg 72%
    17:00 +8°C° 0 mm 5 mps 746 mmHg 74%
    18:00 +8°C° 0 mm 5 mps 746 mmHg 75%
    19:00 +8°C° 0 mm 4 mps 746 mmHg 78%
    20:00 +7°C° 0 mm 4 mps 746 mmHg 80%
    21:00 +7°C° 0 mm 3 mps 746 mmHg 82%
    22:00 +7°C° 0 mm 3 mps 746 mmHg 83%
    23:00 +7°C° 0 mm 3 mps 746 mmHg 83%

    30 August, Friday

    Time Temperature Precipitation Wind Pressure Humidity
    00:00 +7°C° 0 mm 3 mps 746 mmHg 83%
    01:00 +7°C° 0 mm 3 mps 746 mmHg 86%
    02:00 +5°C° 0 mm 3 mps 746 mmHg 88%
    03:00 +4°C° 0 mm 3 mps 746 mmHg 91%
    04:00 +4°C° 0 mm 3 mps 746 mmHg 90%
    05:00 +4°C° 0 mm 3 mps 746 mmHg 90%
    06:00 +4°C° 0 mm 3 mps 746 mmHg 89%
    07:00 +6°C° 0 mm 4 mps 746 mmHg 82%
    08:00 +7°C° 0 mm 4 mps 746 mmHg 74%
    09:00 +9°C° 0 mm 5 mps 746 mmHg 67%
    10:00 +10°C° 0 mm 5 mps 746 mmHg 64%
    11:00 +12°C° 0 mm 5 mps 746 mmHg 61%
    12:00 +13°C° 0 mm 4 mps 746 mmHg 58%
    13:00 +13°C° 0.1 mm 5 mps 745 mmHg 62%
    14:00 +12°C° 0.1 mm 5 mps 745 mmHg 65%
    15:00 +10°C° 0.1 mm 6 mps 745 mmHg 69%
    16:00 +9°C° 0.5 mm 5 mps 745 mmHg 75%
    17:00 +8°C° 0.5 mm 4 mps 745 mmHg 82%
    18:00 +6°C° 0.5 mm 4 mps 745 mmHg 88%
    19:00 +7°C° 0 mm 3 mps 745 mmHg 91%
    20:00 +5°C° 0 mm 3 mps 745 mmHg 93%
    21:00 +4°C° 0 mm 3 mps 745 mmHg 95%
    22:00 +4°C° 0 mm 3 mps 745 mmHg 95%
    23:00 +4°C° 0 mm 3 mps 746 mmHg 95%
    Show more